Hourly Weather Staryj Sambor

Today, 26 October, Monday

Time Temperature Precipitation Wind Pressure Humidity
00:00 +10°C° 0 mm 2 mps 726 mmHg 94%
01:00 +10°C° 0 mm 2 mps 726 mmHg 94%
02:00 +10°C° 0 mm 2 mps 725 mmHg 93%
03:00 +10°C° 0 mm 2 mps 725 mmHg 93%
04:00 +10°C° 0 mm 2 mps 725 mmHg 93%
05:00 +10°C° 0 mm 2 mps 725 mmHg 93%
06:00 +10°C° 0 mm 2 mps 725 mmHg 93%
07:00 +10°C° 0 mm 2 mps 725 mmHg 92%
08:00 +10°C° 0 mm 2 mps 725 mmHg 92%
09:00 +13°C° 0 mm 2 mps 725 mmHg 86%
10:00 +13°C° 0 mm 3 mps 725 mmHg 80%
11:00 +15°C° 0 mm 4 mps 725 mmHg 74%
12:00 +15°C° 0 mm 4 mps 725 mmHg 72%
13:00 +15°C° 0 mm 4 mps 725 mmHg 70%
14:00 +17°C° 0 mm 4 mps 725 mmHg 68%
15:00 +16°C° 0 mm 3 mps 725 mmHg 73%
16:00 +14°C° 0 mm 3 mps 725 mmHg 78%
17:00 +14°C° 0 mm 2 mps 724 mmHg 83%
18:00 +13°C° 0 mm 2 mps 725 mmHg 85%
19:00 +12°C° 0 mm 2 mps 725 mmHg 88%
20:00 +12°C° 0 mm 2 mps 725 mmHg 91%
21:00 +11°C° 0 mm 3 mps 725 mmHg 90%
22:00 +11°C° 0 mm 3 mps 725 mmHg 90%
23:00 +11°C° 0 mm 3 mps 725 mmHg 90%

Tomorrow, 27 October, Tuesday

Time Temperature Precipitation Wind Pressure Humidity
00:00 +11°C° 0 mm 3 mps 725 mmHg 89%
01:00 +11°C° 0 mm 3 mps 725 mmHg 88%
02:00 +11°C° 0 mm 3 mps 725 mmHg 88%
03:00 +11°C° 0 mm 3 mps 725 mmHg 88%
04:00 +10°C° 0 mm 3 mps 725 mmHg 89%
05:00 +10°C° 0 mm 3 mps 725 mmHg 89%
06:00 +10°C° 0 mm 3 mps 726 mmHg 90%
07:00 +10°C° 0 mm 2 mps 726 mmHg 90%
08:00 +10°C° 0 mm 2 mps 726 mmHg 90%
09:00 +13°C° 0 mm 2 mps 726 mmHg 82%
10:00 +15°C° 0 mm 2 mps 726 mmHg 75%
11:00 +17°C° 0 mm 2 mps 726 mmHg 67%
12:00 +18°C° 0 mm 2 mps 726 mmHg 64%
13:00 +18°C° 0 mm 2 mps 726 mmHg 60%
14:00 +19°C° 0 mm 2 mps 726 mmHg 57%
15:00 +17°C° 0 mm 2 mps 726 mmHg 64%
16:00 +16°C° 0 mm 2 mps 725 mmHg 71%
17:00 +14°C° 0 mm 1 mps 725 mmHg 78%
18:00 +14°C° 0 mm 1 mps 725 mmHg 80%
19:00 +13°C° 0 mm 1 mps 725 mmHg 82%
20:00 +12°C° 0 mm 1 mps 725 mmHg 84%
21:00 +12°C° 0 mm 1 mps 726 mmHg 85%
22:00 +12°C° 0 mm 1 mps 726 mmHg 85%
23:00 +11°C° 0 mm 1 mps 726 mmHg 86%

Day after tomorrow, 28 October, Wednesday

Time Temperature Precipitation Wind Pressure Humidity
00:00 +11°C° 0 mm 1 mps 726 mmHg 85%
01:00 +11°C° 0 mm 1 mps 726 mmHg 85%
02:00 +11°C° 0 mm 1 mps 726 mmHg 84%
03:00 +11°C° 0 mm 1 mps 726 mmHg 84%
04:00 +10°C° 0 mm 1 mps 726 mmHg 84%
05:00 +10°C° 0 mm 1 mps 726 mmHg 84%
06:00 +10°C° 0 mm 1 mps 726 mmHg 83%
07:00 +11°C° 0 mm 1 mps 726 mmHg 82%
08:00 +11°C° 0 mm 1 mps 727 mmHg 81%
09:00 +11°C° 0 mm 0 mps 727 mmHg 75%
10:00 +13°C° 0 mm 0 mps 727 mmHg 69%
11:00 +15°C° 0 mm 0 mps 727 mmHg 63%
12:00 +16°C° 0 mm 0 mps 727 mmHg 61%
13:00 +16°C° 0 mm 0 mps 727 mmHg 59%
14:00 +19°C° 0 mm 1 mps 727 mmHg 57%
15:00 +16°C° 0 mm 1 mps 727 mmHg 64%
16:00 +15°C° 0 mm 1 mps 727 mmHg 71%
17:00 +13°C° 0 mm 1 mps 727 mmHg 77%
18:00 +13°C° 0 mm 1 mps 727 mmHg 79%
19:00 +12°C° 0 mm 1 mps 727 mmHg 82%
20:00 +12°C° 0 mm 1 mps 727 mmHg 84%
21:00 +11°C° 0 mm 1 mps 727 mmHg 84%
22:00 +11°C° 0 mm 1 mps 727 mmHg 85%
23:00 +11°C° 0 mm 1 mps 727 mmHg 86%

29 October, Thursday

Time Temperature Precipitation Wind Pressure Humidity
00:00 +11°C° 0 mm 1 mps 727 mmHg 86%
01:00 +10°C° 0 mm 1 mps 727 mmHg 87%
02:00 +10°C° 0 mm 1 mps 727 mmHg 87%
03:00 +10°C° 0 mm 1 mps 727 mmHg 87%
04:00 +10°C° 0 mm 1 mps 727 mmHg 88%
05:00 +10°C° 0 mm 1 mps 728 mmHg 88%
06:00 +10°C° 0 mm 1 mps 728 mmHg 88%
07:00 +10°C° 0 mm 1 mps 728 mmHg 87%
08:00 +10°C° 0 mm 1 mps 728 mmHg 87%
09:00 +12°C° 0 mm 1 mps 728 mmHg 81%
10:00 +14°C° 0 mm 1 mps 729 mmHg 75%
11:00 +15°C° 0 mm 1 mps 729 mmHg 69%
12:00 +16°C° 0 mm 1 mps 729 mmHg 69%
13:00 +16°C° 0 mm 2 mps 729 mmHg 68%
14:00 +16°C° 0 mm 2 mps 729 mmHg 68%
15:00 +15°C° 0.1 mm 1 mps 729 mmHg 75%
16:00 +14°C° 0.1 mm 1 mps 729 mmHg 81%
17:00 +13°C° 0.1 mm 1 mps 729 mmHg 88%
18:00 +12°C° 0 mm 1 mps 730 mmHg 89%
19:00 +12°C° 0 mm 1 mps 730 mmHg 90%
20:00 +11°C° 0 mm 1 mps 730 mmHg 91%
21:00 +11°C° 0 mm 1 mps 731 mmHg 91%
22:00 +11°C° 0 mm 1 mps 731 mmHg 91%
23:00 +10°C° 0 mm 1 mps 731 mmHg 92%

30 October, Friday

Time Temperature Precipitation Wind Pressure Humidity
00:00 +10°C° 0 mm 1 mps 732 mmHg 91%
01:00 +10°C° 0 mm 1 mps 732 mmHg 91%
02:00 +10°C° 0 mm 1 mps 732 mmHg 91%
03:00 +10°C° 0 mm 1 mps 732 mmHg 90%
04:00 +10°C° 0 mm 1 mps 732 mmHg 89%
05:00 +10°C° 0 mm 1 mps 732 mmHg 89%
06:00 +10°C° 0 mm 1 mps 733 mmHg 89%
07:00 +10°C° 0 mm 1 mps 733 mmHg 89%
08:00 +10°C° 0 mm 1 mps 733 mmHg 90%
09:00 +11°C° 0 mm 1 mps 733 mmHg 83%
10:00 +13°C° 0 mm 2 mps 733 mmHg 76%
11:00 +14°C° 0 mm 2 mps 733 mmHg 69%
12:00 +15°C° 0 mm 2 mps 733 mmHg 67%
13:00 +16°C° 0 mm 2 mps 733 mmHg 64%
14:00 +16°C° 0 mm 3 mps 733 mmHg 62%
15:00 +15°C° 0 mm 2 mps 733 mmHg 68%
16:00 +14°C° 0 mm 2 mps 733 mmHg 74%
17:00 +13°C° 0 mm 2 mps 733 mmHg 81%
18:00 +12°C° 0 mm 2 mps 733 mmHg 83%
19:00 +10°C° 0 mm 2 mps 733 mmHg 85%
20:00 +10°C° 0 mm 2 mps 734 mmHg 88%
21:00 +10°C° 0 mm 2 mps 734 mmHg 87%
22:00 +9°C° 0 mm 2 mps 734 mmHg 87%
23:00 +9°C° 0 mm 2 mps 734 mmHg 86%

31 October, Saturday

Time Temperature Precipitation Wind Pressure Humidity
00:00 +9°C° 0 mm 2 mps 734 mmHg 85%
01:00 +9°C° 0 mm 2 mps 734 mmHg 85%
02:00 +9°C° 0 mm 2 mps 734 mmHg 84%
03:00 +9°C° 0 mm 2 mps 734 mmHg 85%
04:00 +9°C° 0 mm 2 mps 733 mmHg 85%
05:00 +8°C° 0 mm 2 mps 733 mmHg 86%
06:00 +8°C° 0 mm 2 mps 733 mmHg 86%
07:00 +8°C° 0 mm 2 mps 733 mmHg 85%
08:00 +8°C° 0 mm 2 mps 733 mmHg 85%
Show more